| time (UTC) | temp F | wind direction | speed knots | gust knots | rain 1hr in | rain 24hr in | rain mn in | humidity % | barometer mb |
| 20260509150546 | 64 | 229 | 8.7 | 13.9 | 0.00 | 0.00 | 0.00 | 74 | 1004.3 |
| 20260509145545 | 64 | 265 | 8.7 | 14.8 | 0.00 | 0.00 | 0.00 | 73 | 1004.3 |
| 20260509145049 | 64 | 220 | 8.7 | 14.8 | 0.00 | 0.00 | 0.00 | 74 | 1004.2 |
| 20260509144634 | 63 | 257 | 8.7 | 14.8 | 0.00 | 0.00 | 0.00 | 75 | 1004.1 |
| 20260509144047 | 63 | 234 | 8.7 | 14.8 | 0.00 | 0.00 | 0.00 | 75 | 1004.0 |
| 20260509143541 | 63 | 238 | 8.7 | 14.8 | 0.00 | 0.00 | 0.00 | 76 | 1003.9 |
| 20260509143047 | 62 | 226 | 8.7 | 13.9 | 0.00 | 0.00 | 0.00 | 74 | 1004.0 |
| 20260509142543 | 62 | 229 | 7.8 | 14.8 | 0.00 | 0.00 | 0.00 | 76 | 1004.0 |
| 20260509142039 | 62 | 246 | 9.6 | 14.8 | 0.00 | 0.00 | 0.00 | 75 | 1004.0 |
| 20260509141543 | 62 | 217 | 8.7 | 15.6 | 0.00 | 0.00 | 0.00 | 78 | 1003.8 |
| 20260509141037 | 61 | 243 | 9.6 | 15.6 | 0.00 | 0.00 | 0.00 | 76 | 1003.9 |
| 20260509140537 | 62 | 221 | 9.6 | 16.5 | 0.00 | 0.00 | 0.00 | 80 | 1003.9 |
| 20260509140036 | 61 | 257 | 8.7 | 16.5 | 0.00 | 0.00 | 0.00 | 80 | 1004.0 |
| 20260509135535 | 61 | 207 | 7.8 | 13.9 | 0.00 | 0.00 | 0.00 | 81 | 1004.1 |
| 20260509135034 | 60 | 200 | 10.4 | 13.9 | 0.00 | 0.00 | 0.00 | 82 | 1004.1 |
| 20260509134534 | 59 | 235 | 9.6 | 13.9 | 0.00 | 0.00 | 0.00 | 82 | 1004.2 |
| 20260509134033 | 59 | 217 | 8.7 | 13.0 | 0.00 | 0.00 | 0.00 | 84 | 1004.2 |
| 20260509133534 | 59 | 219 | 7.0 | 13.0 | 0.00 | 0.00 | 0.00 | 87 | 1004.1 |
| 20260509133030 | 58 | 241 | 6.1 | 13.0 | 0.00 | 0.00 | 0.00 | 88 | 1004.1 |
| 20260509132528 | 57 | 226 | 9.6 | 12.2 | 0.00 | 0.00 | 0.00 | 87 | 1004.2 |
| 20260509132027 | 57 | 213 | 8.7 | 13.0 | 0.00 | 0.00 | 0.00 | 88 | 1004.3 |
| 20260509131533 | 57 | 198 | 6.1 | 12.2 | 0.00 | 0.00 | 0.00 | 90 | 1004.3 |
| 20260509131025 | 56 | 225 | 8.7 | 12.2 | 0.00 | 0.00 | 0.00 | 90 | 1004.4 |
| 20260509130524 | 56 | 204 | 7.0 | 12.2 | 0.00 | 0.00 | 0.00 | 90 | 1004.5 |
| 20260509130024 | 56 | 237 | 7.0 | 11.3 | 0.00 | 0.00 | 0.00 | 91 | 1004.4 |
| 20260509125522 | 55 | 211 | 7.0 | 11.3 | 0.00 | 0.00 | 0.00 | 91 | 1004.4 |
| 20260509125023 | 55 | 211 | 7.0 | 11.3 | 0.00 | 0.00 | 0.00 | 91 | 1004.5 |
| 20260509124522 | 55 | 248 | 5.2 | 8.7 | 0.00 | 0.00 | 0.00 | 92 | 1004.7 |
| 20260509124021 | 55 | 232 | 5.2 | 9.6 | 0.00 | 0.00 | 0.00 | 93 | 1004.7 |
| 20260509123520 | 54 | 222 | 4.3 | 8.7 | 0.00 | 0.00 | 0.00 | 93 | 1004.6 |
| 20260509123020 | 54 | 223 | 5.2 | 9.6 | 0.00 | 0.00 | 0.00 | 94 | 1004.4 |
| 20260509122519 | 54 | 175 | 6.1 | 9.6 | 0.00 | 0.00 | 0.00 | 94 | 1004.1 |
| 20260509122019 | 53 | 184 | 7.0 | 9.6 | 0.00 | 0.00 | 0.00 | 94 | 1003.9 |
| 20260509121524 | 53 | 166 | 6.1 | 8.7 | 0.00 | 0.00 | 0.00 | 94 | 1003.8 |
| 20260509121017 | 53 | 178 | 6.1 | 9.6 | 0.00 | 0.00 | 0.00 | 95 | 1003.8 |
| 20260509120517 | 53 | 188 | 6.1 | 9.6 | 0.00 | 0.00 | 0.00 | 94 | 1003.8 |
| 20260509120017 | 52 | 185 | 7.0 | 9.6 | 0.00 | 0.00 | 0.00 | 94 | 1003.7 |
| 20260509115516 | 52 | 193 | 6.1 | 7.8 | 0.00 | 0.01 | 0.00 | 94 | 1003.8 |
| 20260509115016 | 52 | 169 | 5.2 | 7.8 | 0.00 | 0.01 | 0.00 | 94 | 1003.8 |
| 20260509114516 | 52 | 180 | 5.2 | 10.4 | 0.00 | 0.01 | 0.00 | 95 | 1003.8 |
| 20260509114016 | 52 | 176 | 7.0 | 10.4 | 0.00 | 0.01 | 0.00 | 95 | 1003.7 |
| 20260509113515 | 52 | 189 | 7.8 | 11.3 | 0.00 | 0.01 | 0.00 | 94 | 1003.7 |
| 20260509113015 | 52 | 182 | 6.1 | 9.6 | 0.00 | 0.01 | 0.00 | 94 | 1003.8 |
| 20260509112515 | 52 | 207 | 7.0 | 9.6 | 0.00 | 0.01 | 0.00 | 94 | 1003.8 |
| 20260509112015 | 52 | 188 | 6.1 | 13.0 | 0.00 | 0.01 | 0.00 | 94 | 1003.9 |
| 20260509111514 | 52 | 189 | 8.7 | 13.0 | 0.00 | 0.01 | 0.00 | 94 | 1003.7 |
| 20260509111015 | 52 | 200 | 7.0 | 11.3 | 0.00 | 0.01 | 0.00 | 94 | 1003.8 |
| 20260509110514 | 52 | 209 | 7.0 | 11.3 | 0.00 | 0.01 | 0.00 | 94 | 1003.8 |
| 20260509110014 | 51 | 200 | 6.1 | 11.3 | 0.00 | 0.01 | 0.00 | 94 | 1003.8 |
| 20260509105514 | 51 | 197 | 7.0 | 11.3 | 0.00 | 0.05 | 0.00 | 94 | 1003.8 |
| 20260509105015 | 51 | 185 | 7.0 | 10.4 | 0.00 | 0.05 | 0.00 | 94 | 1003.6 |
| 20260509104529 | 51 | 190 | 7.0 | 10.4 | 0.00 | 0.05 | 0.00 | 94 | 1003.8 |
| 20260509104013 | 51 | 205 | 7.0 | 11.3 | 0.00 | 0.05 | 0.00 | 94 | 1003.8 |
| 20260509103512 | 51 | 181 | 7.0 | 11.3 | 0.00 | 0.05 | 0.00 | 94 | 1003.9 |
| 20260509103012 | 51 | 192 | 6.1 | 11.3 | 0.00 | 0.05 | 0.00 | 94 | 1003.9 |
| 20260509102511 | 50 | 201 | 7.8 | 11.3 | 0.00 | 0.05 | 0.00 | 94 | 1003.9 |
| 20260509102011 | 49 | 181 | 6.1 | 7.8 | 0.00 | 0.05 | 0.00 | 94 | 1003.9 |
| 20260509101513 | 49 | 170 | 4.3 | 6.1 | 0.00 | 0.05 | 0.00 | 93 | 1003.9 |
| 20260509101011 | 48 | 170 | 3.5 | 5.2 | 0.00 | 0.05 | 0.00 | 93 | 1003.9 |
| 20260509100508 | 48 | 169 | 3.5 | 5.2 | 0.00 | 0.05 | 0.00 | 92 | 1003.9 |
| 20260509100015 | 49 | 165 | 3.5 | 5.2 | 0.00 | 0.05 | 0.00 | 93 | 1003.9 |
| 20260509095506 | 49 | 177 | 3.5 | 6.1 | 0.00 | 0.09 | 0.00 | 92 | 1004.0 |
| 20260509095006 | 50 | 177 | 3.5 | 7.0 | 0.00 | 0.09 | 0.00 | 92 | 1004.1 |
| 20260509094516 | 50 | 191 | 4.3 | 7.0 | 0.00 | 0.09 | 0.00 | 93 | 1004.2 |
| 20260509094005 | 50 | 188 | 4.3 | 6.1 | 0.00 | 0.09 | 0.00 | 93 | 1004.2 |
| 20260509093505 | 50 | 184 | 4.3 | 6.1 | 0.00 | 0.09 | 0.00 | 94 | 1004.2 |
| 20260509093005 | 49 | 188 | 3.5 | 5.2 | 0.00 | 0.09 | 0.00 | 93 | 1004.2 |
| 20260509092504 | 49 | 169 | 3.5 | 5.2 | 0.00 | 0.09 | 0.00 | 93 | 1004.2 |
| 20260509092004 | 49 | 182 | 3.5 | 5.2 | 0.00 | 0.09 | 0.00 | 93 | 1004.2 |
| 20260509091503 | 49 | 167 | 2.6 | 5.2 | 0.00 | 0.09 | 0.00 | 92 | 1004.2 |
| 20260509091003 | 49 | 171 | 3.5 | 6.1 | 0.00 | 0.09 | 0.00 | 92 | 1004.2 |
| 20260509090503 | 49 | 164 | 3.5 | 7.0 | 0.00 | 0.09 | 0.00 | 92 | 1004.1 |
| 20260509090003 | 49 | 181 | 4.3 | 7.0 | 0.00 | 0.09 | 0.00 | 92 | 1004.2 |
| 20260509085502 | 49 | 177 | 3.5 | 5.2 | 0.00 | 0.09 | 0.00 | 91 | 1004.1 |
| 20260509085004 | 50 | 166 | 3.5 | 7.0 | 0.00 | 0.09 | 0.00 | 91 | 1004.1 |
| 20260509084502 | 51 | 177 | 3.5 | 9.6 | 0.00 | 0.09 | 0.00 | 91 | 1004.1 |
| 20260509084002 | 51 | 189 | 5.2 | 9.6 | 0.00 | 0.09 | 0.00 | 92 | 1004.0 |
| 20260509083501 | 51 | 201 | 5.2 | 7.8 | 0.00 | 0.09 | 0.00 | 93 | 1004.1 |
| 20260509083101 | 51 | 198 | 6.1 | 7.8 | 0.00 | 0.09 | 0.00 | 93 | 1004.1 |
| 20260509082600 | 50 | 192 | 4.3 | 7.0 | 0.00 | 0.09 | 0.00 | 92 | 1004.2 |
| 20260509082100 | 50 | 188 | 5.2 | 7.0 | 0.00 | 0.09 | 0.00 | 92 | 1004.2 |
| 20260509081559 | 50 | 204 | 5.2 | 6.1 | 0.00 | 0.09 | 0.00 | 93 | 1004.3 |
| 20260509081058 | 49 | 185 | 4.3 | 6.1 | 0.00 | 0.09 | 0.00 | 92 | 1004.3 |
| 20260509080557 | 49 | 188 | 3.5 | 6.1 | 0.00 | 0.09 | 0.00 | 92 | 1004.3 |
| 20260509080100 | 49 | 178 | 3.5 | 5.2 | 0.00 | 0.09 | 0.00 | 92 | 1004.4 |
| 20260509075557 | 49 | 181 | 3.5 | 4.3 | 0.00 | 0.09 | 0.00 | 91 | 1004.4 |
| 20260509075057 | 50 | 197 | 2.6 | 5.2 | 0.00 | 0.09 | 0.00 | 91 | 1004.4 |
| 20260509074600 | 50 | 197 | 3.5 | 5.2 | 0.00 | 0.09 | 0.00 | 92 | 1004.5 |
| 20260509074056 | 50 | 212 | 3.5 | 4.3 | 0.00 | 0.09 | 0.00 | 92 | 1004.6 |
| 20260509073556 | 50 | 214 | 2.6 | 4.3 | 0.00 | 0.09 | 0.00 | 92 | 1004.5 |
| 20260509073058 | 50 | 199 | 2.6 | 4.3 | 0.00 | 0.09 | 0.00 | 92 | 1004.4 |
| 20260509072557 | 50 | 199 | 2.6 | 4.3 | 0.00 | 0.09 | 0.00 | 92 | 1004.4 |
| 20260509072055 | 50 | 178 | 3.5 | 4.3 | 0.00 | 0.09 | 0.00 | 91 | 1004.2 |
| 20260509071608 | 50 | 186 | 2.6 | 4.3 | 0.00 | 0.09 | 0.00 | 91 | 1004.3 |
| 20260509071100 | 50 | 191 | 3.5 | 5.2 | 0.00 | 0.09 | 0.00 | 92 | 1004.3 |
| 20260509070558 | 50 | 188 | 3.5 | 5.2 | 0.00 | 0.09 | 0.00 | 92 | 1004.4 |
| 20260509070056 | 50 | 186 | 2.6 | 4.3 | 0.00 | 0.09 | 0.00 | 91 | 1004.5 |
| 20260509065553 | 50 | 167 | 2.6 | 4.3 | 0.00 | 0.09 | 0.00 | 91 | 1004.5 |
| 20260509065057 | 50 | 167 | 2.6 | 4.3 | 0.00 | 0.09 | 0.00 | 91 | 1004.5 |
| 20260509064555 | 50 | 167 | 2.6 | 4.3 | 0.00 | 0.09 | 0.00 | 90 | 1004.6 |
| 20260509064050 | 50 | 167 | 2.6 | 4.3 | 0.00 | 0.09 | 0.00 | 89 | 1004.7 |
| 20260509063548 | 51 | 181 | 2.6 | 4.3 | 0.00 | 0.09 | 0.00 | 90 | 1004.7 |
| 20260509063049 | 51 | 181 | 3.5 | 5.2 | 0.00 | 0.09 | 0.00 | 90 | 1004.6 |
| 20260509062547 | 51 | 181 | 3.5 | 5.2 | 0.00 | 0.09 | 0.00 | 90 | 1004.8 |
| 20260509062047 | 51 | 181 | 3.5 | 5.2 | 0.00 | 0.09 | 0.00 | 90 | 1004.9 |
| 20260509061550 | 51 | 178 | 3.5 | 5.2 | 0.00 | 0.09 | 0.00 | 89 | 1004.9 |
| 20260509061043 | 52 | 188 | 3.5 | 5.2 | 0.00 | 0.09 | 0.00 | 89 | 1005.1 |
| 20260509060543 | 52 | 192 | 3.5 | 5.2 | 0.00 | 0.09 | 0.00 | 89 | 1005.0 |
| 20260509060052 | 52 | 192 | 3.5 | 5.2 | 0.00 | 0.09 | 0.00 | 89 | 1005.0 |
| 20260509055543 | 52 | 200 | 3.5 | 5.2 | 0.00 | 0.09 | 0.00 | 89 | 1005.2 |
| 20260509055041 | 52 | 211 | 3.5 | 6.1 | 0.00 | 0.09 | 0.00 | 88 | 1005.2 |
| 20260509054549 | 53 | 192 | 4.3 | 6.1 | 0.00 | 0.09 | 0.00 | 88 | 1005.2 |
| 20260509054043 | 53 | 202 | 2.6 | 5.2 | 0.00 | 0.09 | 0.00 | 88 | 1005.2 |
| 20260509053539 | 53 | 202 | 3.5 | 6.1 | 0.00 | 0.09 | 0.00 | 87 | 1005.2 |
| 20260509053039 | 53 | 202 | 4.3 | 6.1 | 0.00 | 0.09 | 0.00 | 87 | 1005.2 |
| 20260509052538 | 53 | 209 | 4.3 | 6.1 | 0.00 | 0.09 | 0.00 | 87 | 1005.2 |
| 20260509052037 | 53 | 204 | 4.3 | 6.1 | 0.00 | 0.09 | 0.00 | 87 | 1005.1 |
| 20260509051539 | 53 | 203 | 4.3 | 7.0 | 0.00 | 0.09 | 0.00 | 87 | 1005.2 |
| 20260509051036 | 53 | 209 | 4.3 | 7.0 | 0.00 | 0.09 | 0.00 | 87 | 1005.2 |
| 20260509050536 | 53 | 207 | 4.3 | 7.0 | 0.00 | 0.09 | 0.00 | 87 | 1005.2 |
| 20260509050047 | 54 | 215 | 3.5 | 6.1 | 0.00 | 0.09 | 0.00 | 87 | 1005.2 |
| 20260509045534 | 54 | 205 | 4.3 | 6.1 | 0.00 | 0.09 | 0.09 | 87 | 1005.1 |
| 20260509045034 | 54 | 179 | 4.3 | 7.0 | 0.00 | 0.09 | 0.09 | 86 | 1005.1 |
| 20260509044543 | 54 | 194 | 4.3 | 7.0 | 0.00 | 0.09 | 0.09 | 86 | 1005.2 |
| 20260509044034 | 54 | 206 | 4.3 | 7.0 | 0.00 | 0.09 | 0.09 | 85 | 1005.4 |
| 20260509043532 | 55 | 204 | 4.3 | 7.0 | 0.00 | 0.09 | 0.09 | 85 | 1005.5 |
| 20260509043033 | 55 | 207 | 4.3 | 8.7 | 0.00 | 0.09 | 0.09 | 85 | 1005.5 |
| 20260509042532 | 55 | 212 | 5.2 | 8.7 | 0.00 | 0.09 | 0.09 | 85 | 1005.5 |
| 20260509042032 | 55 | 211 | 5.2 | 8.7 | 0.00 | 0.09 | 0.09 | 85 | 1005.6 |
| 20260509041532 | 55 | 214 | 4.3 | 8.7 | 0.00 | 0.09 | 0.09 | 85 | 1005.6 |
| 20260509041032 | 55 | 214 | 5.2 | 8.7 | 0.00 | 0.09 | 0.09 | 85 | 1005.6 |
| 20260509040534 | 55 | 217 | 3.5 | 6.1 | 0.00 | 0.09 | 0.09 | 85 | 1005.8 |
| 20260509040032 | 55 | 208 | 4.3 | 6.1 | 0.00 | 0.09 | 0.09 | 85 | 1005.8 |
| 20260509035533 | 55 | 209 | 4.3 | 6.1 | 0.00 | 0.09 | 0.09 | 85 | 1005.8 |
| 20260509035032 | 55 | 211 | 3.5 | 6.1 | 0.00 | 0.09 | 0.09 | 85 | 1005.8 |
| 20260509034532 | 55 | 231 | 4.3 | 6.1 | 0.00 | 0.09 | 0.09 | 85 | 1005.8 |
| 20260509034031 | 55 | 205 | 3.5 | 7.8 | 0.00 | 0.09 | 0.09 | 85 | 1005.9 |
| 20260509033533 | 56 | 208 | 4.3 | 7.8 | 0.00 | 0.09 | 0.09 | 85 | 1005.8 |
| 20260509033031 | 56 | 207 | 4.3 | 7.0 | 0.00 | 0.09 | 0.09 | 84 | 1005.8 |
| 20260509032531 | 56 | 193 | 4.3 | 7.0 | 0.00 | 0.09 | 0.09 | 84 | 1005.8 |
| 20260509032034 | 56 | 195 | 5.2 | 7.0 | 0.00 | 0.09 | 0.09 | 85 | 1005.8 |
| 20260509031532 | 56 | 182 | 4.3 | 6.1 | 0.00 | 0.09 | 0.09 | 85 | 1005.9 |
| 20260509031030 | 56 | 188 | 3.5 | 7.0 | 0.00 | 0.09 | 0.09 | 84 | 1005.8 |
| 20260509030534 | 56 | 192 | 4.3 | 7.0 | 0.00 | 0.09 | 0.09 | 84 | 1005.9 |
| 20260509030033 | 56 | 186 | 4.3 | 7.0 | 0.00 | 0.09 | 0.09 | 84 | 1005.9 |
| 20260509025529 | 56 | 192 | 4.3 | 7.0 | 0.00 | 0.09 | 0.09 | 83 | 1005.9 |
| 20260509025029 | 56 | 188 | 4.3 | 7.0 | 0.00 | 0.09 | 0.09 | 83 | 1006.0 |
| 20260509024530 | 56 | 179 | 4.3 | 7.0 | 0.00 | 0.09 | 0.09 | 83 | 1005.9 |
| 20260509024031 | 56 | 182 | 5.2 | 7.8 | 0.00 | 0.09 | 0.09 | 83 | 1005.9 |
| 20260509023528 | 56 | 202 | 4.3 | 6.1 | 0.00 | 0.09 | 0.09 | 83 | 1006.0 |
| 20260509023031 | 57 | 191 | 4.3 | 7.0 | 0.00 | 0.09 | 0.09 | 82 | 1005.9 |
| 20260509022529 | 57 | 211 | 4.3 | 7.8 | 0.00 | 0.09 | 0.09 | 81 | 1005.8 |
| 20260509022029 | 57 | 197 | 4.3 | 7.8 | 0.00 | 0.09 | 0.09 | 81 | 1005.8 |
| 20260509021529 | 57 | 184 | 5.2 | 8.7 | 0.00 | 0.09 | 0.09 | 81 | 1005.7 |
| 20260509021033 | 58 | 194 | 6.1 | 9.6 | 0.00 | 0.09 | 0.09 | 80 | 1005.7 |
| 20260509020532 | 58 | 206 | 6.1 | 9.6 | 0.00 | 0.09 | 0.09 | 80 | 1005.7 |
| 20260509020028 | 58 | 198 | 6.1 | 9.6 | 0.00 | 0.09 | 0.09 | 80 | 1005.7 |
| 20260509015528 | 58 | 206 | 6.1 | 9.6 | 0.00 | 0.09 | 0.09 | 79 | 1005.6 |
| 20260509015028 | 58 | 190 | 6.1 | 8.7 | 0.00 | 0.09 | 0.09 | 79 | 1005.4 |
| 20260509014528 | 58 | 198 | 5.2 | 7.8 | 0.00 | 0.09 | 0.09 | 78 | 1005.4 |
| 20260509014028 | 58 | 192 | 5.2 | 7.8 | 0.00 | 0.09 | 0.09 | 78 | 1005.5 |
| 20260509013527 | 58 | 210 | 4.3 | 6.1 | 0.00 | 0.09 | 0.09 | 77 | 1005.5 |
| 20260509013038 | 58 | 195 | 5.2 | 6.1 | 0.00 | 0.09 | 0.09 | 76 | 1005.5 |
| 20260509012527 | 58 | 200 | 4.3 | 7.0 | 0.00 | 0.09 | 0.09 | 75 | 1005.5 |
| 20260509012027 | 59 | 192 | 4.3 | 7.0 | 0.00 | 0.09 | 0.09 | 75 | 1005.5 |
| 20260509011527 | 59 | 199 | 4.3 | 7.0 | 0.00 | 0.09 | 0.09 | 73 | 1005.5 |
| 20260509011027 | 60 | 216 | 5.2 | 9.6 | 0.00 | 0.09 | 0.09 | 72 | 1005.5 |
| 20260509010526 | 60 | 215 | 6.1 | 9.6 | 0.00 | 0.09 | 0.09 | 71 | 1005.5 |
| 20260509010026 | 60 | 205 | 6.1 | 9.6 | 0.00 | 0.09 | 0.09 | 70 | 1005.4 |
| 20260509005526 | 60 | 215 | 6.1 | 10.4 | 0.00 | 0.09 | 0.09 | 69 | 1005.4 |
| 20260509005027 | 60 | 214 | 6.1 | 10.4 | 0.00 | 0.09 | 0.09 | 69 | 1005.4 |
| 20260509004526 | 60 | 200 | 7.0 | 10.4 | 0.00 | 0.09 | 0.09 | 68 | 1005.4 |
| 20260509004026 | 61 | 207 | 7.0 | 14.8 | 0.00 | 0.09 | 0.09 | 67 | 1005.4 |
| 20260509003526 | 61 | 234 | 8.7 | 14.8 | 0.00 | 0.09 | 0.09 | 67 | 1005.4 |
| 20260509003026 | 61 | 229 | 7.8 | 13.0 | 0.00 | 0.09 | 0.09 | 68 | 1005.4 |
| 20260509002526 | 61 | 190 | 7.8 | 14.8 | 0.00 | 0.09 | 0.09 | 69 | 1005.4 |
| 20260509002025 | 62 | 209 | 9.6 | 14.8 | 0.00 | 0.09 | 0.09 | 69 | 1005.3 |
| 20260509001525 | 62 | 222 | 8.7 | 13.0 | 0.00 | 0.09 | 0.09 | 69 | 1005.4 |
| 20260509001025 | 62 | 211 | 7.0 | 13.0 | 0.00 | 0.09 | 0.09 | 68 | 1005.3 |
| 20260509000524 | 63 | 203 | 7.8 | 14.8 | 0.00 | 0.09 | 0.09 | 68 | 1005.3 |
| 20260509000025 | 63 | 209 | 10.4 | 14.8 | 0.00 | 0.09 | 0.09 | 66 | 1005.2 |
| 20260508235524 | 63 | 205 | 8.7 | 13.9 | 0.00 | 0.09 | 0.09 | 66 | 1005.2 |
| 20260508235024 | 63 | 213 | 7.8 | 13.9 | 0.00 | 0.09 | 0.09 | 68 | 1005.4 |
| 20260508234524 | 63 | 217 | 8.7 | 13.9 | 0.00 | 0.09 | 0.09 | 67 | 1005.4 |
| 20260508234023 | 63 | 208 | 9.6 | 15.6 | 0.00 | 0.09 | 0.09 | 67 | 1005.4 |
| 20260508233524 | 63 | 185 | 11.3 | 15.6 | 0.00 | 0.09 | 0.09 | 67 | 1005.4 |
| 20260508233023 | 64 | 207 | 9.6 | 17.4 | 0.00 | 0.09 | 0.09 | 65 | 1005.4 |
| 20260508232522 | 65 | 213 | 8.7 | 17.4 | 0.00 | 0.09 | 0.09 | 64 | 1005.5 |
| 20260508232022 | 65 | 200 | 10.4 | 14.8 | 0.00 | 0.09 | 0.09 | 63 | 1005.5 |
| 20260508231522 | 66 | 209 | 8.7 | 14.8 | 0.00 | 0.09 | 0.09 | 62 | 1005.5 |
| 20260508231021 | 66 | 249 | 7.0 | 10.4 | 0.00 | 0.09 | 0.09 | 56 | 1005.5 |
| 20260508230521 | 66 | 222 | 6.1 | 13.9 | 0.00 | 0.09 | 0.09 | 58 | 1005.6 |
| 20260508230040 | 66 | 215 | 9.6 | 14.8 | 0.00 | 0.09 | 0.09 | 56 | 1005.5 |
| 20260508225520 | 66 | 215 | 7.8 | 14.8 | 0.00 | 0.09 | 0.09 | 60 | 1005.5 |
| 20260508225021 | 66 | 198 | 7.0 | 13.0 | 0.00 | 0.09 | 0.09 | 60 | 1005.5 |
| 20260508224547 | 65 | 237 | 7.0 | 11.3 | 0.00 | 0.09 | 0.09 | 59 | 1005.5 |
| 20260508224019 | 66 | 212 | 7.8 | 12.2 | 0.00 | 0.09 | 0.09 | 59 | 1005.5 |
| 20260508223521 | 66 | 202 | 6.1 | 12.2 | 0.00 | 0.09 | 0.09 | 60 | 1005.6 |
| 20260508223027 | 66 | 209 | 7.0 | 9.6 | 0.00 | 0.09 | 0.09 | 60 | 1005.6 |
| 20260508222517 | 66 | 251 | 7.0 | 9.6 | 0.00 | 0.09 | 0.09 | 62 | 1005.6 |
| 20260508222017 | 66 | 175 | 7.0 | 12.2 | 0.00 | 0.09 | 0.09 | 60 | 1005.6 |
| 20260508221516 | 66 | 244 | 6.1 | 12.2 | 0.00 | 0.09 | 0.09 | 60 | 1005.7 |
| 20260508221022 | 66 | 244 | 6.1 | 10.4 | 0.00 | 0.09 | 0.09 | 62 | 1005.7 |
| 20260508220516 | 66 | 236 | 6.1 | 10.4 | 0.00 | 0.09 | 0.09 | 61 | 1005.7 |
| 20260508220015 | 66 | 219 | 5.2 | 9.6 | 0.00 | 0.09 | 0.09 | 60 | 1005.7 |
| 20260508215512 | 66 | 230 | 5.2 | 9.6 | 0.00 | 0.09 | 0.09 | 61 | 1005.7 |
| 20260508215011 | 66 | 238 | 6.1 | 12.2 | 0.00 | 0.09 | 0.09 | 61 | 1005.7 |
| 20260508214511 | 66 | 272 | 4.3 | 12.2 | 0.00 | 0.09 | 0.09 | 64 | 1005.7 |
| 20260508214014 | 66 | 252 | 3.5 | 8.7 | 0.00 | 0.09 | 0.09 | 62 | 1005.8 |
| 20260508213509 | 66 | 237 | 6.1 | 8.7 | 0.00 | 0.09 | 0.09 | 61 | 1005.9 |
| 20260508213008 | 65 | 249 | 5.2 | 10.4 | 0.00 | 0.09 | 0.09 | 63 | 1006.0 |
| 20260508212508 | 65 | 224 | 6.1 | 10.4 | 0.00 | 0.09 | 0.09 | 64 | 1006.0 |
| 20260508212007 | 65 | 234 | 4.3 | 11.3 | 0.00 | 0.09 | 0.09 | 64 | 1006.0 |
| 20260508211509 | 65 | 222 | 7.8 | 11.3 | 0.00 | 0.09 | 0.09 | 63 | 1006.0 |
| 20260508211007 | 65 | 217 | 5.2 | 7.8 | 0.00 | 0.09 | 0.09 | 61 | 1005.9 |
| 20260508210510 | 65 | 264 | 5.2 | 10.4 | 0.00 | 0.09 | 0.09 | 63 | 1006.0 |
| 20260508210005 | 65 | 236 | 7.0 | 10.4 | 0.00 | 0.09 | 0.09 | 65 | 1006.0 |
| 20260508205503 | 64 | 214 | 7.0 | 8.7 | 0.00 | 0.09 | 0.09 | 66 | 1006.0 |
| 20260508205003 | 64 | 235 | 6.1 | 10.4 | 0.00 | 0.09 | 0.09 | 66 | 1006.1 |
| 20260508204508 | 63 | 221 | 6.1 | 10.4 | 0.00 | 0.09 | 0.09 | 68 | 1006.2 |
| 20260508204002 | 63 | 219 | 5.2 | 11.3 | 0.00 | 0.09 | 0.09 | 67 | 1006.2 |
| 20260508203502 | 64 | 219 | 6.1 | 11.3 | 0.00 | 0.09 | 0.09 | 67 | 1006.2 |
| 20260508203116 | 64 | 230 | 7.8 | 12.2 | 0.00 | 0.09 | 0.09 | 68 | 1006.2 |
| 20260508202601 | 63 | 231 | 7.8 | 12.2 | 0.00 | 0.09 | 0.09 | 67 | 1006.3 |
| 20260508202107 | 63 | 215 | 9.6 | 12.2 | 0.00 | 0.09 | 0.09 | 67 | 1006.3 |
| 20260508201600 | 63 | 205 | 7.0 | 11.3 | 0.00 | 0.09 | 0.09 | 68 | 1006.5 |
| 20260508201059 | 64 | 228 | 7.0 | 14.8 | 0.00 | 0.09 | 0.09 | 67 | 1006.5 |
| 20260508200558 | 64 | 208 | 7.8 | 12.2 | 0.00 | 0.09 | 0.09 | 69 | 1006.6 |
| 20260508200057 | 63 | 212 | 6.1 | 12.2 | 0.00 | 0.09 | 0.09 | 69 | 1006.7 |
| 20260508195557 | 63 | 198 | 7.8 | 12.2 | 0.00 | 0.09 | 0.09 | 65 | 1006.8 |
| 20260508195056 | 63 | 204 | 7.8 | 12.2 | 0.00 | 0.09 | 0.09 | 66 | 1006.9 |
| 20260508194556 | 63 | 225 | 7.0 | 12.2 | 0.00 | 0.09 | 0.09 | 66 | 1006.9 |
| 20260508194059 | 63 | 211 | 7.8 | 12.2 | 0.00 | 0.09 | 0.09 | 65 | 1006.9 |
| 20260508193555 | 63 | 191 | 7.0 | 13.0 | 0.00 | 0.09 | 0.09 | 67 | 1007.0 |
| 20260508193128 | 64 | 230 | 7.8 | 13.0 | 0.00 | 0.09 | 0.09 | 66 | 1007.0 |
| 20260508192555 | 64 | 196 | 8.7 | 13.0 | 0.00 | 0.09 | 0.09 | 68 | 1007.0 |
| 20260508192054 | 64 | 183 | 7.8 | 13.0 | 0.00 | 0.09 | 0.09 | 67 | 1007.0 |
| 20260508191554 | 64 | 202 | 7.0 | 10.4 | 0.00 | 0.09 | 0.09 | 65 | 1007.0 |
| 20260508191053 | 64 | 237 | 5.2 | 10.4 | 0.00 | 0.09 | 0.09 | 68 | 1007.1 |
| 20260508190553 | 63 | 257 | 7.0 | 10.4 | 0.00 | 0.09 | 0.09 | 66 | 1007.1 |
| 20260508190054 | 64 | 227 | 5.2 | 8.7 | 0.00 | 0.09 | 0.09 | 65 | 1007.1 |
| 20260508185654 | 64 | 222 | 4.3 | 7.8 | 0.00 | 0.09 | 0.09 | 65 | 1007.1 |
| 20260508185053 | 64 | 248 | 4.3 | 9.6 | 0.00 | 0.09 | 0.09 | 67 | 1007.2 |
| 20260508184614 | 64 | 224 | 6.1 | 10.4 | 0.00 | 0.09 | 0.09 | 66 | 1007.2 |
| 20260508184052 | 64 | 222 | 6.1 | 11.3 | 0.00 | 0.09 | 0.09 | 67 | 1007.3 |
| 20260508183550 | 64 | 211 | 7.8 | 11.3 | 0.00 | 0.09 | 0.09 | 68 | 1007.3 |
| 20260508183051 | 64 | 198 | 6.1 | 9.6 | 0.00 | 0.09 | 0.09 | 67 | 1007.5 |
| 20260508182549 | 64 | 207 | 7.0 | 9.6 | 0.00 | 0.09 | 0.09 | 67 | 1007.6 |
| 20260508182048 | 63 | 221 | 5.2 | 9.6 | 0.00 | 0.09 | 0.09 | 69 | 1007.6 |
| 20260508181548 | 62 | 230 | 5.2 | 9.6 | 0.00 | 0.09 | 0.09 | 71 | 1007.7 |
| 20260508181048 | 62 | 221 | 5.2 | 8.7 | 0.00 | 0.09 | 0.09 | 70 | 1007.9 |
| 20260508180546 | 62 | 257 | 3.5 | 7.8 | 0.00 | 0.09 | 0.09 | 68 | 1007.8 |
| 20260508180056 | 62 | 211 | 4.3 | 6.1 | 0.00 | 0.09 | 0.09 | 65 | 1007.9 |
| 20260508175546 | 63 | 267 | 2.6 | 6.1 | 0.00 | 0.09 | 0.09 | 68 | 1007.8 |
| 20260508175046 | 62 | 227 | 3.5 | 6.1 | 0.00 | 0.09 | 0.09 | 64 | 1007.9 |
| 20260508174601 | 62 | 261 | 1.7 | 6.1 | 0.00 | 0.09 | 0.09 | 66 | 1007.8 |
| 20260508174045 | 62 | 221 | 2.6 | 6.1 | 0.00 | 0.09 | 0.09 | 64 | 1007.9 |
| 20260508173544 | 62 | 234 | 2.6 | 6.1 | 0.00 | 0.09 | 0.09 | 65 | 1007.9 |
| 20260508173043 | 63 | 219 | 2.6 | 6.1 | 0.00 | 0.09 | 0.09 | 64 | 1008.1 |
| 20260508172543 | 63 | 201 | 2.6 | 6.1 | 0.00 | 0.09 | 0.09 | 65 | 1008.2 |
| 20260508172042 | 62 | 258 | 2.6 | 6.1 | 0.00 | 0.09 | 0.09 | 64 | 1008.0 |
| 20260508171607 | 62 | 265 | 2.6 | 7.8 | 0.00 | 0.09 | 0.09 | 67 | 1008.2 |
| 20260508171041 | 62 | 238 | 3.5 | 7.8 | 0.00 | 0.09 | 0.09 | 65 | 1008.4 |
| 20260508170541 | 62 | 286 | 2.6 | 6.1 | 0.00 | 0.09 | 0.09 | 65 | 1008.4 |
| 20260508170041 | 62 | 243 | 2.6 | 6.1 | 0.00 | 0.09 | 0.09 | 66 | 1008.5 |
| 20260508165639 | 62 | 255 | 4.3 | 8.7 | 0.00 | 0.09 | 0.09 | 66 | 1008.6 |
| 20260508165038 | 63 | 237 | 3.5 | 8.7 | 0.00 | 0.09 | 0.09 | 65 | 1008.7 |
| 20260508164540 | 63 | 228 | 5.2 | 8.7 | 0.00 | 0.09 | 0.09 | 65 | 1008.7 |
| 20260508164037 | 63 | 178 | 5.2 | 11.3 | 0.00 | 0.09 | 0.09 | 64 | 1008.8 |
| 20260508163536 | 63 | 188 | 7.0 | 10.4 | 0.00 | 0.09 | 0.09 | 67 | 1008.9 |
| 20260508163036 | 63 | 198 | 4.3 | 12.2 | 0.00 | 0.09 | 0.09 | 66 | 1008.9 |
| 20260508162536 | 63 | 227 | 6.1 | 12.2 | 0.00 | 0.09 | 0.09 | 65 | 1009.0 |
| 20260508162035 | 63 | 237 | 6.1 | 8.7 | 0.00 | 0.09 | 0.09 | 65 | 1008.9 |
| 20260508161542 | 63 | 206 | 5.2 | 7.8 | 0.00 | 0.09 | 0.09 | 67 | 1009.0 |
| 20260508161034 | 63 | 199 | 5.2 | 7.8 | 0.00 | 0.09 | 0.09 | 68 | 1008.9 |
| 20260508160533 | 62 | 254 | 3.5 | 7.8 | 0.00 | 0.09 | 0.09 | 66 | 1009.0 |
| 20260508160036 | 62 | 213 | 5.2 | 7.8 | 0.00 | 0.09 | 0.09 | 67 | 1009.0 |
| 20260508155531 | 62 | 199 | 5.2 | 8.7 | 0.00 | 0.09 | 0.09 | 69 | 1009.2 |
| 20260508155030 | 62 | 197 | 5.2 | 8.7 | 0.00 | 0.09 | 0.09 | 68 | 1009.2 |
| 20260508154530 | 61 | 182 | 4.3 | 9.6 | 0.00 | 0.09 | 0.09 | 71 | 1009.2 |
| 20260508154029 | 62 | 184 | 5.2 | 10.4 | 0.00 | 0.09 | 0.09 | 70 | 1009.2 |
| 20260508153531 | 61 | 173 | 4.3 | 8.7 | 0.00 | 0.09 | 0.09 | 70 | 1009.3 |
| 20260508153036 | 61 | 186 | 4.3 | 8.7 | 0.00 | 0.09 | 0.09 | 72 | 1009.4 |
| 20260508152529 | 61 | 172 | 3.5 | 7.8 | 0.00 | 0.09 | 0.09 | 73 | 1009.5 |
| 20260508152024 | 60 | 200 | 4.3 | 7.8 | 0.00 | 0.09 | 0.09 | 74 | 1009.6 |
| 20260508151536 | 60 | 140 | 3.5 | 7.8 | 0.00 | 0.09 | 0.09 | 75 | 1009.5 |
| 20260508151028 | 60 | 165 | 5.2 | 9.6 | 0.00 | 0.09 | 0.09 | 73 | 1009.5 |